Regional Weather Roundup
Issued by NWS Pendleton, OR

Home | Current Version | Previous Version | Text Only | Print | Product List | Glossary On
Versions: 1 2 3 4 5 6 7 8 9 10 11 12 13 14 15 16 17 18 19 20 21 22 23 24 25 26 27 28 29 30 31 32 33 34 35 36 37 38 39 40 41 42 43 44 45 46 47 48 49 50
000
ASUS46 KPDT 042025
RWRPDT
PENDLETON REGIONAL WEATHER ROUNDUP
NATIONAL WEATHER SERVICE PENDLETON OREGON
100 PM PDT MON MAY 4 2015

NOTE: FAIR INDICATES FEW OR NO CLOUDS BELOW 12,000 FEET WITH NO
SIGNIFICANT WEATHER AND/OR OBSTRUCTIONS TO VISIBILITY.

# INDICATES UNOFFICIAL STATION AND DATA

WAZ520-042110-
EAST SLOPES OF WASHINGTON CASCADES

CITY            SKY/WX      TMP DP  RH  WIND    PRES   REMARKS
#BULLFROG 2SW   N/A         65  40  40  N5      27.42F
#BUMPING DAM    N/A         59  N/A N/A S8      N/A
#CLE ELUM HS    N/A         72  36  27  W1      29.76F
#CLE ELUM LAKE  N/A         68  42  39  W1      29.73F
#CLIFFDEL 2NW   N/A         70  32  24  SW2     N/A
#GLENWOOD       N/A         67  47  49  SW10    29.83S
#MANASTASH CYN  N/A         70  35  28  N2      29.79F
#NELSON         N/A         70  43  38  CALM    29.77F
#NELSON 3SW     N/A         66  41  40  CALM    29.97F
#NILE           N/A         72  41  33  NE3     29.02F
#RONALD 2NW     N/A         65  42  43  W1      29.70F
#SNOWDEN        N/A         61  32  33  NW10    N/A
#TEANAWAY 4NE   N/A         71  42  35  S2      N/A
#TROUT LAKE 1NE N/A         66  46  48  W8      29.84R
$$

WAZ521-042110-
SIMCOE HIGHLANDS

CITY            SKY/WX      TMP DP  RH  WIND    PRES   REMARKS
#BICKLETON HS   N/A         66  28  24  W7      N/A
#CENTERVILLE 4W N/A         67  44  43  NW16    29.61F
#CENTERVILLE 1SWN/A         67  43  42  W20     29.80S
#GOLDENDALE     N/A         69  40  35  W9      N/A
#GOLDENDALE 1NE N/A         68  30  24  SW8     N/A
#GOLDENDALE 5WNWN/A         66  41  40  W21     29.81F
#GOODNOE HILLS  N/A         74  41  30  SW22    N/A
#LYLE 6NE       N/A         64  47  54  S12     29.81S
$$

WAZ026-042110-
KITTITAS VALLEY

CITY            SKY/WX      TMP DP  RH  WIND    PRES   REMARKS
ELLENSBURG AP   SUNNY       76  36  23  SE10    29.78F
YTC-OPS AREA    MOSUNNY     67  30  25  E17     29.80F
#ELLENSBURG CWU N/A         71  35  27  S13     29.69F
#ELLENSBURG 3NE N/A         71  41  34  S3      29.79F
#ELLENSBURG 1E  N/A         77  42  29  SE3     N/A
#KITTITAS 4N    N/A         76  40  27  NW3     28.11F
#KITTITAS 3S    N/A         71  47  42  S2      29.75F
#THORP 6N       N/A         67  38  34  E6      29.77F
$$

WAZ027-042110-
YAKIMA VALLEY

CITY            SKY/WX      TMP DP  RH  WIND    PRES   REMARKS
SUNNYSIDE AP    SUNNY       76  30  18  SE14    29.78F
YAKIMA AIRPORT  SUNNY       79  35  20  VRB7    29.78F
#DONALD 2NE     N/A         80   9   7  CALM    28.63F
#GRANDVIEW      N/A         75  30  19  S2      29.77F
#MABTON         N/A         75  38  26  SE12    29.77F
#NACHES 2SW     N/A         74  42  32  SE5     29.82F
#OUTLOOK DOT    N/A         N/A N/A N/A E8      N/A
#SELAH 8E       N/A         74  29  19  S12     N/A
#TERRACE HTS    N/A         75  37  25  S5      29.72F
#TOPPENISH      N/A         75  39  27  E2      29.66F
#WAPATO 4NE     N/A         80   9   7  CALM    28.63F
#WEST VALLEY    N/A         73  38  28  E3      29.74F
#W YAKIMA       N/A         74  38  27  S5      29.74F
#WHITE SWAN 5E  N/A         74  39  28  E8      29.77F
$$

WAZ028-042110-
LOWER COLUMBIA BASIN...WASHINGTON

CITY            SKY/WX      TMP DP  RH  WIND    PRES   REMARKS
HANFORD         SUNNY       78  28  16  SE10    29.79F
PASCO           SUNNY       78  35  21  E5      29.79F
RICHLAND AWOS   SUNNY       77  37  24  E5      29.79F
#BASIN CITY 5SW N/A         75  44  33  SE6     29.80F
#BENTON CITY    N/A         76  31  19  S6      29.68F
#CONNELL 5N     N/A         76  37  24  SW7     29.77F
#CONNELL 5NW    N/A         74  37  26  S2      29.75F
#ELTOPIA 6NW    N/A         70  41  35  S2      28.78F
#KAHLOTUS       N/A         74  30  20  W6      29.78F
#KENNEWICK      N/A         65  40  40  N5      27.42F
#KENNEWICK 3S   N/A         77  45  32  CALM    29.77F
#PATERSON       N/A         72  33  24  S2      29.78F
#PROSSER        N/A         75  29  18  SW10    29.77F
#SAGEMOOR 2W    N/A         76  46  34  CALM    29.64F
#TOUCHET 2S     N/A         75  51  43  CALM    29.77F
#WEST PASCO     N/A         79  46  31  NE1     29.76F
$$

WAZ029-042110-
FOOTHILLS OF THE BLUES...WASHINGTON

CITY            SKY/WX      TMP DP  RH  WIND    PRES   REMARKS
WALLA WALLA AP  SUNNY       75  32  21  N5      29.81F
#DAYTON SCHOOL  N/A         75  32  21  W1      29.83F
#LOWDEN 2SE     N/A         75  40  28  CALM    29.75F
#PRESCOTT       N/A         77  39  25  CALM    29.77F
#SUDBURY        N/A         77  N/A N/A CALM    N/A
#WHITMAN COLLEGEN/A         74  38  27  W3      29.82F
#WAITSBURG 5S   N/A         72  39  30  W3      29.86F
#WAITSBURG 8N   N/A         83  23  11  E2      29.65F
#WALLA WALLA 5E N/A         75  42  31  CALM    N/A
#WALLA WALLA U  N/A         75  38  26  CALM    29.78F
#WHITMAN MISSIONN/A         75  41  29  CALM    29.79F
$$

WAZ030-042110-
BLUE MOUNTAINS...WASHINGTON

CITY            SKY/WX      TMP DP  RH  WIND    PRES   REMARKS
#DIXIE 5SE      N/A         65  33  30  W2      29.79F
$$

ORZ009-041-WAZ024-042110-
COLUMBIA RIVER GORGE

CITY            SKY/WX      TMP DP  RH  WIND    PRES   REMARKS
HOOD RIVER AP   SUNNY       61  45  56  W20G38  29.90R
THE DALLES AP   SUNNY       72  44  37  NW20G28 29.85S
#ARLINGTON AIRPON/A         74  41  30  W13     25.05S
#ARLINGTON HS   N/A         76  38  25  NW16    29.70F
#CELILO DOT     N/A         74  46  37  SW8     N/A
#MOSIER 1S      N/A         64  36  35  N12     29.88S
#MURDOCK        N/A         66  49  54  NW18G35 29.86S
#RUFUS DOT      N/A         76  46  34  S8      N/A

$$

ORZ510-042110-
NORTH CENTRAL OREGON

CITY            SKY/WX      TMP DP  RH  WIND    PRES   REMARKS
#CHENOWITH 1W   N/A         58  43  57  W35     N/A
#COW CYN RST AREN/A         69  22  17  SW8     N/A
#DUFUR 9E       N/A         60  45  58  NW15G24 29.86F
#GRASS VALLEY 1SN/A         70  41  35  NW10    29.83F
#KENT DOT       N/A         71  37  29  W10     N/A
#MAUPIN SCHOOL  N/A         75  41  29  NW1     29.83F
#MORO SCHOOL    N/A         66  38  36  CALM    30.18S
#SHANIKO 5WSW   N/A         68  30  24  W12     N/A
#SHANIKO 4NW    N/A         66  21  18  SW6     29.89F
#TYGH VALLEY 2NEN/A         74  41  30  E1      29.79F
#WAPANITIA AIRPON/A         73  39  29  NW7     29.81F
#WASCO DOT      N/A         72  43  35  SW10    N/A
#WASCO AIRPORT  N/A         71  41  34  W6      N/A
#WASCO 5NE      N/A         71  44  38  W9      29.81F
$$

ORZ511-042110-
CENTRAL OREGON

CITY            SKY/WX      TMP DP  RH  WIND    PRES   REMARKS
BEND AIRPORT    SUNNY       72  27  19  MISG    N/A
MADRAS AIRPORT  SUNNY       72  28  19  CALM    29.87F
PRINEVILLE AP   SUNNY       72  27  19  W8      29.86F
#BEND 1SW       N/A         73  27  18  N1      N/A
#BEND-AWBREY    N/A         73  29  20  W2      29.78F
#BEND-KIM LN    N/A         75  32  21  S3      29.85F
#CULVER         N/A         73  32  22  NW7     29.82F
#LAKE BILLY CHINN/A         72  -3   5  NW12    29.90F
#POWELL BUTTE 3EN/A         68  33  27  NW8     N/A
#POWELL BUTTE   N/A         76  41  28  N7      29.52F
#PRINEVILLE 3N  N/A         71  37  29  W9      29.76F
#WARM SPRINGS   N/A         74  37  26  NW2     29.81F

$$


ORZ509-042110-
EAST SLOPES OF OREGON CASCADES

CITY            SKY/WX      TMP DP  RH  WIND    PRES   REMARKS
#BLUE BOX PASS  N/A         60   5  11  SW1     N/A
#CAMP SHERMAN   N/A         72  30  21  S2      29.85R
#LA PINE 4NW    N/A         68  29  23  NW6     29.86F
#SISTERS AIRPOR N/A         70  34  26  N12G26  30.17S
#SISTERS ODOT   N/A         71  N/A N/A S8      N/A
#SISTERS 1NW    N/A         71  20  14  W7      N/A
#SISTERS 3N     N/A         69  27  21  W5      29.90F
#SUNRIVER       N/A         71  25  18  SW3     29.70F
#TUMALO 3W      N/A         69  29  22  N1      29.66F
#WANOGA BUTTE D N/A         60  12  15  W8      N/A

$$

ORZ044-042110-
LOWER COLUMBIA BASIN...OREGON

CITY            SKY/WX      TMP DP  RH  WIND    PRES   REMARKS
HERMISTON       SUNNY       75  33  21  CALM    29.79F
#BOARDMAN 8SW   N/A         75  41  29  W3      29.78F
#ECHO 8SW       N/A         74  41  30  N7      29.81F
#IONE SCHOOL    N/A         74  36  25  CALM    29.77F
#IRRIGON 4NW    N/A         72  38  29  N3      N/A
#UMATILLA SCHOOLN/A         80  50  35  CALM    29.83F
#UMATILLA       N/A         74  41  30  NW1     29.71F
$$

ORZ507-042110-
NORTHERN FOOTHILLS OF THE BLUES

CITY            SKY/WX      TMP DP  RH  WIND    PRES   REMARKS
PENDLETON AIRPT SUNNY       74  33  22  NW7     29.81F
#ADAMS 3WNW     N/A         74  38  27  E1      29.77F
#ATHENA         N/A         73  37  27  CALM    29.80F
#CAYUSE         N/A         72  36  27  SW1     29.78F
#HELIX SCHOOL   N/A         74  33  22  S1      29.79F
#HELIX 3N       N/A         72  40  31  N7      29.80F
#HELIX 6SW      N/A         70  37  30  W6      29.83S
#HOLDMAN 6E     N/A         73  31  21  CALM    29.60F
#M-F FERNDALE   N/A         81  44  27  CALM    29.79F
#M-F GROVE ELEM N/A         73  36  26  N2      29.79F
#M-FREEWATER 5SEN/A         75  42  31  CALM    29.80F
#PENDLETON DNTN N/A         78  37  23  W2      29.81F
#PDT AQUATIC CTRN/A         74  41  30  W5      29.83S
#PENDLETON 5NE  N/A         76  42  30  N1      29.78F
#PDT SUNRIDGE   N/A         74  35  24  CALM    29.81F
#PENDLETON 7NW  N/A         74  44  34  CALM    29.77F
#TUTUILLA       N/A         74  40  29  NW2     29.80F
#UMAPINE 2E     N/A         75  44  33  N1      29.76F
#WESTON SCHOOL  N/A         71  32  24  CALM    29.81F

$$

ORZ508-042110-
SOUTHERN FOOTHILLS OF THE BLUES

CITY            SKY/WX      TMP DP  RH  WIND    PRES   REMARKS
#AJAX           N/A         70  34  26  W5      29.80F
#CONDON SCHOOL  N/A         69  33  26  CALM    29.83F
#CONDON 5W      N/A         67  26  21  SW8     29.84F
#FOSSIL SCHOOL  N/A         70  29  22  W7      29.83F
#HEPPNER EOC    N/A         73  33  23  W5      29.72F
#HEPPNER 4NE    N/A         69  30  23  W1      29.80F
#LEXINGTON 2SE  N/A         75  36  24  NW7     29.77F
#MIKKALO        N/A         73  36  26  NW6     29.84F
#OLEX 4N        N/A         72  38  29  W3      29.81F
#RUGGS 5NE      N/A         74  16  11  NW3     30.01F
#RUGGS 2SW      N/A         71  30  22  NW8     29.80F

$$

ORZ502-503-042110-
BLUE MOUNTAINS

CITY            SKY/WX      TMP DP  RH  WIND    PRES   REMARKS
MEACHAM         SUNNY       69  29  22  VRB6    29.87F
#BATTLE MTN DOT N/A         69  44  40  N1      N/A
#HEPPNER 15SE   N/A         67  35  30  NW5     29.79F
#LADD CYN SMT   N/A         72  31  22  SE2     N/A
#LADD CREEK ODOTN/A         66  44  45  NE8     N/A
#LONG CREEK HS  N/A         64  35  34  CALM    29.82F
#N POWDER DOT   N/A         72  41  33  NW3     N/A
#PIKES PEAK     N/A         64  40  41  SW5     27.99S
#TOLLGATE       N/A         63  29  28  SW2     29.86F
#TROY SCHOOL    N/A         76  41  28  CALM    29.62F
#UKIAH          N/A         73  38  28  S5      29.86F
#WESTON 4E      N/A         67  39  36  N1      29.74F
$$

ORZ505-042110-
JOHN DAY BASIN

CITY            SKY/WX      TMP DP  RH  WIND    PRES   REMARKS
JOHN DAY        PTCLDY      75  32  21  NW9     29.85F
#JOHN DAY KJDY  N/A         78  35  21  SW6     29.95F
#DAYVILLE SCHOOLN/A         75  29  18  N2      29.80F
#MITCHELL       N/A         72  38  29  CALM    29.98F
#MONUMENT HS    N/A         73  35  25  E1      29.83F
#MT. VERNON 5SE N/A         70  32  24  N3      29.83F
#WINLOCK        N/A         78  37  23  E5      29.94F
$$

ORZ506-042110-
OCHOCO AND JOHN DAY HIGHLANDS

CITY            SKY/WX      TMP DP  RH  WIND    PRES   REMARKS
#BUCK CREEK DOT N/A         73  73  100 SW16    N/A
#HORSE RIDGE DO N/A         70  18  14  W16     N/A
#KEYES SMT DOT  N/A         68  33  27  SW3     N/A
#PAULINA SCHOOL N/A         56  28  34  CALM    29.85F
#PINE MTN OBS   N/A         59  28  30  S10     N/A
#SENECA         N/A         66  N/A N/A S1      N/A
#SENECA 9NW     N/A         69  32  25  SW1     29.79F
$$

ORZ049-042110-
GRANDE RONDE VALLEY

CITY            SKY/WX      TMP DP  RH  WIND    PRES   REMARKS
LA GRANDE       PTCLDY      72  39  30  E6      29.83F
#COVE           N/A         68  42  39  CALM    29.86F
#COVE SCHOOL    N/A         72  36  27  CALM    29.84F
#ELGIN 3N       N/A         72  35  26  S3      29.82F
#ELGIN 1E       N/A         72  39  30  S1      N/A
#IMBLER SCHOOL  N/A         70  42  36  CALM    29.80F
#ISLAND CITY 4N N/A         60  48  64  CALM    29.99S
#LADD CYN DOT   N/A         72  45  38  NE1     N/A
#LA GRANDE ELEM N/A         71  40  32  SE2     29.86F
#UNION 1S       N/A         69  42  37  CALM    29.71F
$$

ORZ050-042110-
WALLOWA COUNTY

CITY            SKY/WX      TMP DP  RH  WIND    PRES   REMARKS
JOSEPH AIRPORT  N/A         70  28  21  N7      29.88F
#ENTERPRISE HS  N/A         70  36  29  NW3     29.87F
#IMNAHA SCHOOL  N/A         77  33  20  N9      29.78F
#IMNAHA 10S     N/A         70  34  26  E5      29.83F
#JOSEPH 3N      N/A         69  29  22  NW7     29.90F
#JOSEPH 3W      N/A         67  27  22  CALM    29.75F
#LOSTINE        N/A         71  37  29  CALM    29.60F
#MT HOWARD 8000 N/A         52  27  38  SW5     30.07R
#PROMISE 1S     N/A         68  36  31  SE7     29.86F
#SHEEP RDG 7000 N/A         53  27  36  CALM    29.82F
#WALLOWA SCHOOL N/A         74  34  23  W1      30.70F



$$



USA.gov is the U.S. government's official web portal to all federal, state and local government web resources and services.